Wind_Speed
36 36 34 33 32 32 32 31 30 29 29 29 28 27 26 25 25 24 23 22 20 19 18 17 16 15 14 12 11 11 12 12 13 14 16 17 18 19 19 20 20 20 20 20 20 22 24 25 27 27 27 28 29 32 34 35 33 29 25 24 24 25 26 27 28 28 30 31 31 32 32 33 34 34 35 35 35 33 31 29 27 23 21 18 16
37 36 35 34 33 33 32 31 30 30 30 30 29 29 28 27 27 26 25 23 22 21 20 19 18 17 15 13 12 12 12 13 14 15 16 18 19 19 19 19 19 19 20 20 21 23 24 26 26 26 27 28 30 33 34 34 31 26 23 23 24 25 26 27 28 29 30 31 31 31 32 33 34 34 34 34 36 35 32 30 27 23 20 17 17
37 36 36 35 34 33 32 32 31 31 31 31 31 30 30 29 29 27 26 25 23 22 22 21 20 18 16 15 14 13 13 14 15 17 18 19 19 19 18 18 18 19 20 21 23 24 25 26 26 26 27 29 31 34 34 32 28 23 22 23 24 25 26 27 28 30 31 31 31 31 31 32 33 33 33 33 35 35 33 30 26 21 18 15 15
37 37 37 36 34 34 34 34 33 33 32 32 31 31 31 31 30 28 27 26 24 23 23 22 21 20 18 16 15 14 14 15 17 18 19 19 19 18 17 17 18 20 21 23 24 25 25 25 26 27 29 30 33 34 34 30 25 22 22 23 24 25 26 27 28 29 30 31 32 32 32 32 32 31 31 32 33 35 33 30 26 20 16 12 11
37 38 38 37 36 36 36 37 36 35 33 32 32 32 32 32 31 29 28 27 25 25 24 23 22 21 20 18 17 16 16 17 18 19 20 20 19 18 18 18 20 20 22 23 24 24 25 25 26 28 30 32 34 35 32 26 22 21 22 22 23 25 26 27 28 29 30 31 32 33 33 32 30 28 28 30 32 35 34 32 29 24 18 12 7
38 39 39 38 38 39 39 39 39 37 35 33 33 33 33 32 31 30 30 28 27 27 26 24 24 22 22 20 18 17 17 18 19 19 20 20 19 18 19 20 21 21 22 23 23 23 24 25 27 29 31 33 35 34 29 23 21 21 21 21 23 24 26 27 28 29 30 32 33 33 31 30 27 25 27 31 34 37 37 36 33 29 22 15 11
39 39 39 39 40 40 41 41 40 38 36 34 34 34 34 33 32 32 31 30 30 29 28 26 25 24 24 22 19 19 19 19 19 19 20 20 19 19 20 21 22 23 23 24 24 24 24 25 27 29 32 34 35 31 26 21 20 20 20 21 22 24 26 27 29 31 32 33 33 31 29 27 24 22 24 30 35 38 39 38 36 34 29 21 15
40 39 39 39 40 41 42 42 41 39 37 35 35 35 35 34 34 33 33 32 32 31 29 28 28 27 26 23 21 20 20 19 19 20 20 20 19 19 21 22 23 24 24 25 25 25 25 26 27 29 32 34 33 29 23 19 20 20 20 21 21 24 26 28 30 32 33 34 32 30 27 23 19 17 19 24 30 35 39 40 39 37 35 31 23
39 40 40 40 40 40 41 42 42 40 39 38 38 38 37 36 35 35 35 34 33 32 31 31 30 29 27 24 23 22 21 20 20 21 20 20 20 21 22 23 24 25 25 25 26 26 26 27 28 30 32 34 32 26 20 18 19 19 19 20 21 23 25 27 30 31 32 33 31 28 24 19 15 14 17 20 25 31 37 42 42 40 39 38 34
38 39 40 40 39 39 40 41 42 42 41 41 41 40 38 37 36 36 36 35 35 35 34 34 33 31 28 27 26 25 23 21 21 21 21 21 22 22 24 25 25 26 26 26 27 27 27 28 29 31 33 33 30 23 19 18 18 18 18 19 20 22 24 26 28 29 30 30 27 25 22 16 11 14 18 19 23 30 37 43 45 44 43 42 39
39 38 38 38 38 39 39 41 43 44 44 44 43 42 40 38 37 37 37 37 37 37 37 36 35 33 31 29 29 27 25 24 24 24 23 23 24 24 25 26 26 26 26 27 27 28 27 28 30 31 33 33 28 22 19 18 18 17 17 18 20 22 24 25 26 26 27 28 24 22 21 15 10 16 22 22 24 31 39 44 44 43 43 42 42
41 39 37 37 38 40 40 41 42 44 45 45 44 43 42 41 40 40 39 38 38 39 39 38 37 35 34 33 31 29 27 26 27 26 25 25 26 26 27 28 27 27 27 27 28 28 28 28 30 32 33 32 27 21 19 18 18 17 17 19 21 22 23 25 25 24 25 26 23 20 20 19 19 23 25 26 29 36 42 45 41 39 39 40 41
43 40 38 38 38 39 40 41 42 43 44 44 44 44 44 44 43 42 41 40 40 41 41 40 39 38 36 35 33 31 30 29 29 29 29 28 28 28 29 29 28 28 28 28 29 29 28 29 31 32 33 31 25 21 19 18 17 17 18 20 22 23 24 25 25 25 24 24 22 22 25 26 28 29 29 32 38 42 44 43 38 35 36 37 38
44 42 40 39 38 38 39 41 42 43 43 43 44 45 46 46 45 45 44 43 43 43 43 42 41 40 38 36 35 34 33 32 31 31 31 31 30 30 30 30 29 29 28 29 30 29 28 29 31 32 33 30 24 20 19 18 17 18 18 20 23 24 25 27 27 26 26 25 23 26 30 31 32 36 39 41 44 45 44 42 41 40 38 34 33
45 43 41 40 39 38 38 39 40 41 42 43 44 45 46 46 47 46 46 46 46 46 44 44 43 42 40 39 37 36 35 34 34 34 33 32 31 32 31 30 30 30 30 30 30 29 29 30 32 33 33 29 23 21 20 19 18 18 19 21 24 24 26 28 28 28 31 31 29 29 33 36 39 44 46 46 46 46 46 46 48 46 36 28 29
46 44 43 42 40 39 38 38 37 38 39 41 43 44 45 45 46 47 48 49 49 48 47 46 45 44 42 41 40 39 37 36 36 36 34 33 33 33 32 31 31 31 31 31 30 29 30 31 32 33 32 28 23 21 20 19 19 19 19 22 24 25 26 28 29 32 34 35 36 38 41 43 45 47 47 46 45 46 46 50 52 44 32 28 31
47 46 45 44 42 40 39 39 38 38 37 38 40 41 42 43 43 45 47 48 49 50 49 48 47 45 44 44 42 41 39 38 38 37 35 34 34 33 33 33 32 32 32 32 30 30 31 32 33 33 32 28 23 21 21 20 20 19 19 22 26 26 25 29 34 36 36 39 42 43 43 45 48 48 47 46 45 42 39 43 43 36 31 32 34
48 48 47 45 44 42 41 40 39 39 38 38 38 39 39 40 40 42 44 45 47 48 49 49 48 47 46 45 44 42 41 40 40 38 36 35 35 34 34 34 33 33 32 32 31 31 32 33 34 34 32 28 23 22 21 21 21 20 19 21 26 27 27 33 37 38 40 44 46 44 45 49 50 47 46 46 46 42 36 34 33 30 30 32 33
49 49 48 47 46 45 43 42 41 40 39 38 37 38 38 38 39 40 41 42 43 44 46 47 48 48 47 46 44 43 42 41 41 39 37 37 36 35 35 35 34 33 33 33 32 32 33 34 35 35 33 29 25 23 22 21 22 21 18 20 26 27 27 31 36 40 44 47 47 47 48 48 45 45 47 48 47 44 38 33 30 29 29 29 30
51 50 49 49 49 47 46 44 43 41 39 38 37 38 38 38 39 39 40 40 40 41 42 44 45 46 46 45 44 44 43 42 41 39 38 38 37 36 36 36 34 33 34 34 33 33 34 35 36 36 34 30 26 24 23 23 22 21 18 18 24 27 27 30 36 42 45 47 48 50 48 44 44 46 49 49 47 43 40 36 33 32 32 31 31
53 53 52 52 50 49 47 45 44 42 40 38 37 38 38 38 39 40 40 40 40 40 40 41 42 43 44 44 45 44 43 42 41 40 39 39 38 38 38 36 34 34 35 35 34 34 35 36 37 36 34 31 28 26 25 24 23 22 19 17 23 27 27 32 40 45 47 47 48 48 46 44 47 49 50 51 51 47 44 42 41 39 39 38 37
53 53 52 52 51 49 47 46 45 44 42 40 39 38 38 38 39 40 40 40 40 40 40 40 40 41 42 44 45 45 43 43 42 41 40 39 39 39 39 37 35 35 36 36 35 36 37 37 38 37 34 32 30 29 28 25 24 24 21 18 22 25 27 35 45 48 46 46 45 45 46 47 49 50 50 52 52 49 45 42 41 41 42 42 43
49 50 50 50 50 49 47 46 46 46 44 42 41 40 39 39 39 40 41 42 42 42 41 41 41 41 42 43 44 45 44 43 43 41 40 40 40 41 40 38 36 37 37 37 37 37 38 39 39 38 36 34 31 29 28 26 25 25 23 20 21 23 28 38 47 46 44 43 42 42 44 45 46 47 48 48 49 48 45 43 41 41 42 44 46
46 47 48 49 49 50 49 49 49 48 47 44 43 42 41 41 41 41 42 42 42 42 42 42 42 42 43 43 43 44 43 43 43 42 41 41 41 41 40 39 38 38 39 39 39 39 40 41 41 39 36 33 31 29 28 27 27 27 26 23 21 23 29 38 43 43 42 44 44 44 45 45 45 46 47 48 48 48 47 47 45 43 43 46 48
45 46 48 49 50 51 52 53 53 51 49 46 45 45 44 43 43 43 43 43 43 42 42 42 42 42 42 42 42 43 43 42 43 42 42 42 42 42 41 41 40 40 40 41 41 41 42 42 41 38 35 32 31 30 30 30 30 29 29 27 25 25 30 36 40 41 43 45 47 48 49 49 49 49 50 50 50 49 48 49 49 48 48 51 53
46 47 49 51 52 54 55 56 55 53 51 48 47 46 45 44 44 43 43 43 42 42 41 41 41 41 41 41 41 41 41 42 42 43 42 42 42 42 42 42 42 41 42 43 43 42 42 41 39 37 36 34 34 33 32 32 32 32 31 30 29 28 30 33 37 40 42 44 46 48 49 50 51 51 51 53 53 52 50 48 49 50 51 53 54
45 47 49 51 53 55 56 56 55 54 52 50 48 47 46 45 44 44 43 42 41 41 40 40 40 40 40 40 40 40 41 42 43 43 43 42 43 43 43 43 43 43 44 44 44 43 42 41 40 39 38 37 37 36 35 35 34 34 34 33 32 32 32 33 35 38 40 42 44 46 48 50 51 51 52 54 55 55 53 50 48 48 50 52 54
41 44 47 49 50 52 53 53 54 53 52 50 49 48 47 47 47 46 45 43 42 41 41 40 40 40 39 39 40 41 42 42 43 43 43 44 44 44 44 44 44 45 45 45 44 44 43 43 42 42 41 40 39 38 38 37 36 36 36 35 35 35 36 36 37 39 40 42 44 46 48 50 51 51 53 54 55 56 54 49 45 44 48 51 52
38 41 44 46 48 50 51 52 52 52 51 51 50 50 49 49 49 49 48 46 45 44 43 42 42 41 40 40 41 42 43 43 44 44 44 45 45 45 46 46 46 46 46 46 46 46 45 45 44 44 43 42 41 40 40 39 38 38 38 38 38 39 39 40 41 41 42 44 45 47 48 50 51 52 53 54 55 55 52 46 42 43 47 51 53
38 39 41 43 46 48 50 51 52 52 52 52 51 51 52 51 52 51 50 49 48 47 46 45 44 43 43 43 44 44 45 45 45 45 46 47 47 47 47 48 48 48 48 48 47 47 46 46 45 45 44 43 43 43 42 41 41 41 41 41 41 42 42 43 44 45 46 47 48 49 50 52 53 54 55 55 56 55 51 47 44 43 47 51 55
38 39 40 41 44 46 48 50 51 52 52 53 53 53 53 53 53 52 51 50 50 49 48 48 47 46 46 46 46 46 47 47 47 47 48 49 49 49 49 49 49 49 49 49 48 48 48 47 47 46 46 45 45 45 44 43 43 43 43 43 44 45 45 46 47 48 49 50 51 52 53 55 56 57 57 58 58 57 54 51 49 47 48 52 56
39 40 40 40 42 44 46 48 50 51 52 53 53 54 54 54 54 53 52 52 51 50 50 49 49 48 48 48 48 48 48 49 49 50 50 50 51 51 51 51 51 51 51 50 50 49 49 48 48 48 48 47 47 46 46 46 46 46 46 46 47 48 48 49 50 51 52 53 54 55 56 58 60 61 61 61 61 61 58 55 53 52 51 55 59
41 41 41 40 41 42 44 46 49 51 52 53 54 54 54 54 54 54 53 53 52 52 51 51 50 50 50 50 50 50 51 51 51 52 52 52 52 52 52 52 52 52 52 51 51 50 50 50 50 50 49 49 48 48 48 48 48 49 49 50 50 51 51 52 53 54 55 56 58 59 59 60 62 64 65 65 65 65 62 58 55 55 55 57 62
42 42 41 41 41 41 42 44 46 48 50 52 53 54 54 54 54 54 54 54 54 53 53 53 53 53 53 53 53 53 53 53 53 53 54 54 54 54 54 54 54 53 53 52 52 51 51 51 51 51 51 50 50 49 50 50 51 52 52 53 54 54 54 55 57 58 58 60 61 62 62 63 64 66 67 68 68 68 64 59 55 54 55 59 64
43 43 42 41 41 41 41 42 43 45 48 50 51 53 54 54 54 54 54 54 54 54 54 54 55 55 55 55 54 55 55 55 56 56 56 56 56 56 56 56 55 55 54 54 53 53 52 52 52 52 52 52 51 51 52 53 54 55 56 56 56 56 57 59 60 60 61 63 64 65 66 66 67 68 68 69 70 69 65 60 55 54 56 60 66
46 44 43 42 42 41 41 41 41 43 44 47 49 50 51 52 53 53 54 54 54 54 55 55 55 55 55 55 55 56 56 56 57 57 57 57 57 57 57 57 57 56 56 55 54 54 54 54 54 54 54 53 53 54 55 56 57 58 59 59 59 59 60 62 62 63 64 66 67 68 69 69 70 71 71 71 71 69 65 60 57 56 58 63 68
50 48 46 44 43 42 41 41 41 41 42 44 45 47 48 50 51 51 52 53 53 54 54 54 54 54 54 55 55 56 56 56 57 57 57 57 57 57 57 57 57 56 56 56 55 55 55 55 56 56 56 56 57 58 59 60 61 61 61 61 62 63 64 64 65 66 67 69 70 71 72 72 73 74 74 74 73 71 67 62 60 60 62 66 72
54 52 50 48 46 44 43 43 42 42 42 43 43 44 45 47 48 49 50 50 51 51 51 52 52 52 53 54 54 55 55 56 56 56 57 57 57 58 58 58 58 57 57 57 57 57 57 57 57 58 58 59 60 62 63 64 65 64 64 64 65 66 66 67 68 69 70 72 73 74 75 75 76 76 77 76 76 74 70 65 64 64 66 70 76
57 56 54 52 50 48 47 46 45 45 44 44 44 44 44 45 45 46 47 48 48 48 49 49 50 50 51 52 53 54 55 55 55 56 56 57 57 57 58 58 58 58 58 59 58 58 58 59 60 62 63 65 67 68 68 68 66 65 65 66 67 68 69 70 71 72 73 75 76 77 78 78 78 79 79 79 79 77 72 68 66 67 69 74 80
59 58 57 56 55 53 51 50 49 48 47 46 46 46 45 45 45 46 46 46 46 46 47 47 48 49 50 51 53 54 54 55 55 56 56 56 57 57 58 59 59 59 59 60 60 60 60 61 61 62 63 65 67 67 66 65 64 65 67 69 70 71 72 73 75 75 76 77 79 80 80 80 81 81 82 83 83 79 73 69 69 71 73 78 84
60 59 59 59 58 57 56 54 53 52 51 50 49 49 49 48 48 47 47 47 46 46 47 48 48 49 50 52 53 54 55 56 57 57 57 57 58 58 59 59 60 61 61 62 63 64 64 64 64 63 63 63 63 63 64 65 68 71 73 74 74 74 75 76 77 78 79 80 81 82 83 83 83 84 85 86 84 77 71 70 72 74 78 83 88
62 61 61 60 60 60 59 58 57 56 55 54 53 53 52 52 51 50 49 48 47 48 50 51 51 51 51 52 53 55 56 57 59 60 60 60 60 60 60 60 61 62 62 64 66 69 71 72 73 72 71 70 69 69 70 73 75 76 77 77 77 78 78 79 80 82 82 83 84 85 85 85 86 87 88 86 80 73 71 74 77 80 84 89 92
65 64 64 63 63 62 62 61 60 59 58 57 57 56 56 55 53 53 52 50 49 51 53 54 54 53 53 53 54 55 57 60 62 63 64 64 63 63 63 63 63 63 63 64 65 67 70 73 75 76 76 75 75 75 76 77 78 78 79 80 80 81 82 83 84 84 85 86 86 87 87 89 90 89 85 80 75 74 76 80 82 85 90 95 95
68 68 67 66 66 65 64 63 63 62 62 61 60 59 59 58 57 56 55 54 53 53 55 56 56 54 52 51 52 55 59 64 68 68 68 68 68 69 70 70 71 72 73 73 73 72 72 73 74 75 76 77 78 80 80 81 81 81 82 83 84 85 85 86 86 87 88 88 88 89 91 91 88 82 77 75 76 78 81 84 87 90 94 96 96
72 71 70 69 68 68 67 66 65 65 64 64 64 63 62 62 61 60 59 58 57 57 56 56 57 56 52 51 54 58 63 67 71 72 72 72 73 72 73 74 75 77 78 79 80 79 78 77 76 77 79 80 81 82 83 83 84 85 86 86 87 87 88 88 89 90 90 90 91 92 91 86 81 77 77 79 82 85 87 90 93 95 96 96 95
74 73 73 72 71 70 70 69 68 67 67 67 66 66 66 65 65 64 63 62 61 60 59 58 60 61 59 60 63 67 69 72 75 76 75 73 72 71 71 73 74 76 77 78 79 80 80 80 80 81 82 83 84 85 86 87 88 88 89 89 90 90 91 91 92 92 93 94 94 91 86 82 82 83 85 88 90 93 95 98 99 99 97 96 94
76 75 75 74 74 73 73 72 71 70 70 69 68 68 68 67 67 67 66 65 64 63 62 62 64 66 68 69 71 73 74 75 78 79 79 78 78 78 79 79 79 79 79 80 81 82 83 84 85 86 87 87 88 88 89 90 90 91 92 92 92 93 93 94 94 95 96 94 91 87 84 86 88 90 91 94 96 99 102 104 104 102 99 96 94
79 78 78 77 77 75 75 74 73 72 72 72 71 70 70 70 69 69 68 67 66 65 65 65 65 66 68 70 72 75 76 78 79 80 81 81 82 83 84 84 84 84 85 85 86 87 87 88 89 89 89 90 91 91 92 92 93 94 94 95 95 96 97 96 95 94 91 88 86 87 89 91 92 92 95 98 102 105 109 109 107 103 100 97 94
81 80 79 79 78 77 76 76 75 75 74 74 73 72 72 72 72 71 70 69 68 68 68 69 69 69 70 71 73 75 77 78 80 82 83 84 85 86 87 88 89 90 91 91 91 91 92 92 92 92 92 93 93 93 93 94 95 95 96 97 97 97 95 93 91 89 87 87 89 92 94 94 95 98 101 105 108 111 112 110 107 104 101 97 94
82 82 81 80 78 78 77 77 77 77 76 75 74 75 74 74 73 72 72 71 70 69 71 74 75 77 77 78 78 78 79 79 81 84 86 88 89 90 91 92 93 93 93 92 92 93 93 93 93 93 93 92 92 93 94 94 95 96 96 95 93 91 89 89 89 90 91 94 96 97 97 99 102 106 109 111 113 113 112 109 106 104 100 97 95
84 84 83 81 80 79 79 79 80 78 76 73 72 74 76 77 76 76 76 74 71 71 73 75 77 77 78 78 78 78 79 79 80 81 83 85 87 89 90 91 90 90 89 89 89 88 88 88 88 89 90 90 91 92 93 94 95 94 92 90 89 89 89 91 93 94 96 98 99 100 102 105 110 113 115 115 114 113 111 109 106 103 100 98 96
Wind_Direction
222 223 224 226 229 232 234 234 232 231 230 230 230 229 228 226 226 227 229 230 231 230 231 232 235 238 241 246 254 267 281 292 300 307 311 314 317 321 324 324 325 326 327 328 326 323 323 327 331 333 334 335 337 339 340 342 345 349 354 358 357 354 355 356 356 356 355 354 356 356 355 351 348 349 350 350 354 0 4 3 4 7 6 14 39
225 224 224 226 228 232 235 236 236 234 234 234 233 232 230 229 229 229 230 230 230 229 230 234 238 243 246 251 258 269 281 291 299 305 309 313 317 321 324 325 326 326 326 325 321 320 323 327 329 331 332 334 336 338 339 342 345 350 356 359 356 353 354 355 354 354 352 352 353 354 353 350 346 346 347 348 352 359 4 5 7 12 12 24 52
229 228 226 226 228 233 236 238 238 237 236 235 235 234 233 233 233 233 232 231 229 228 230 233 239 244 248 253 260 270 281 290 298 304 308 312 316 319 322 323 324 324 323 320 318 320 324 326 327 329 331 333 335 337 339 342 346 353 358 358 354 352 353 353 352 352 350 349 350 352 352 349 345 345 347 349 353 359 6 7 8 15 17 30 57
231 231 229 226 226 231 236 239 240 238 237 236 235 235 235 236 237 236 235 234 232 231 231 234 240 244 248 254 261 271 281 290 298 303 307 310 313 316 319 320 319 319 318 318 319 322 324 325 327 328 330 333 335 336 339 343 348 355 358 357 353 350 350 349 350 351 349 346 347 350 352 349 347 348 351 356 0 4 11 13 12 17 21 32 54
230 232 233 229 226 226 231 236 238 238 237 236 236 236 236 237 239 238 238 237 235 234 234 237 240 244 248 254 261 271 281 291 298 301 304 306 308 311 314 316 316 317 317 319 320 322 323 325 326 327 330 333 334 337 340 344 349 354 357 356 352 348 346 347 349 349 347 344 346 350 353 352 354 358 4 10 14 15 19 21 19 17 18 20 25
229 230 232 232 228 226 228 233 236 237 237 236 237 237 237 238 239 238 238 238 236 236 237 238 241 244 249 254 262 272 282 290 295 298 300 301 303 307 312 314 314 315 317 319 320 321 322 323 325 327 329 332 334 337 341 345 348 352 356 355 351 345 344 347 349 346 344 345 347 351 355 358 3 12 20 26 28 24 22 23 21 18 15 7 350
228 229 230 232 232 229 228 231 234 237 237 238 239 240 239 239 238 238 238 238 237 238 239 240 242 245 249 255 263 273 282 288 292 294 295 295 297 303 309 311 312 313 316 318 319 319 320 322 324 326 329 331 334 337 341 344 346 349 354 355 350 343 343 348 349 345 344 347 349 351 358 7 13 22 31 34 32 27 20 16 14 11 9 4 348
231 230 230 232 233 232 231 231 233 236 238 240 241 242 241 240 239 238 239 239 239 240 241 242 244 246 250 256 263 271 278 283 288 290 291 291 294 300 306 308 308 310 312 316 317 317 318 320 323 326 328 331 334 336 339 342 343 347 352 353 346 340 344 349 349 346 346 348 351 352 0 15 21 24 31 32 30 26 16 8 4 359 355 352 346
233 233 233 233 233 234 235 234 234 234 237 239 241 242 242 242 241 240 241 242 242 243 243 244 246 248 252 257 262 268 273 277 282 285 287 287 290 296 301 304 305 306 309 312 314 314 316 319 322 325 328 331 333 334 336 337 340 345 349 349 343 338 343 349 348 347 346 348 351 352 1 23 30 16 18 21 19 16 8 359 354 349 343 339 336
233 234 235 235 235 236 237 237 235 234 235 237 239 241 242 243 243 243 244 244 244 244 245 245 247 250 253 257 260 265 269 273 276 280 283 284 287 292 297 300 301 302 305 308 310 312 314 317 321 324 327 330 331 330 330 332 336 342 345 344 338 335 341 347 348 348 346 347 353 357 4 26 32 0 355 355 356 359 356 350 344 339 333 329 325
233 234 235 237 238 238 238 238 237 235 235 237 239 241 242 243 244 245 245 245 245 245 246 246 248 250 252 255 258 262 267 270 271 276 281 284 286 290 293 296 298 299 301 304 307 309 312 316 320 323 326 328 328 325 325 327 332 338 340 338 333 332 338 344 347 350 348 346 352 359 4 10 2 346 345 343 343 345 343 338 334 328 322 319 318
232 234 235 236 238 238 238 239 239 237 237 238 240 241 242 243 244 245 245 246 246 247 247 248 249 250 251 253 256 260 264 267 269 273 279 283 285 287 291 294 296 296 298 301 303 306 310 314 318 321 325 326 324 320 320 323 328 333 335 333 328 328 334 339 343 349 350 348 351 0 5 358 345 341 343 341 336 334 333 330 327 325 321 317 313
232 233 235 236 238 238 239 239 239 240 240 240 241 243 243 244 244 245 246 247 248 249 249 250 251 251 251 253 256 259 262 265 268 272 276 280 283 285 288 291 294 295 296 298 301 304 308 313 316 319 323 324 320 315 314 318 322 328 331 328 323 325 330 333 337 343 346 347 347 348 349 345 340 337 334 329 327 328 327 323 321 325 326 319 313
232 233 235 237 238 240 241 241 241 241 242 242 243 244 245 246 246 247 247 247 248 249 250 252 252 252 253 254 256 258 261 265 268 271 274 278 281 283 286 289 291 292 293 295 299 302 307 312 314 317 321 321 315 309 309 312 316 323 327 323 320 323 325 326 332 336 336 336 335 333 333 333 332 327 323 322 323 326 326 319 315 321 323 315 311
232 234 235 237 239 240 242 242 243 243 243 243 244 245 246 248 249 249 248 248 248 249 250 251 252 253 254 255 257 259 261 265 268 270 273 276 279 281 284 287 289 289 290 293 297 301 305 309 311 314 319 318 310 304 304 307 311 319 324 320 317 319 320 323 329 331 328 329 329 327 325 324 321 320 321 325 326 327 326 319 317 322 321 310 312
232 234 235 237 238 240 242 243 243 244 244 244 245 246 247 248 249 250 250 249 249 249 249 250 252 253 255 256 257 259 261 263 266 268 271 274 277 279 282 285 286 286 288 291 296 300 304 307 309 312 316 314 305 298 300 303 307 316 321 316 312 314 317 322 327 325 322 323 325 325 324 322 319 319 323 327 329 330 328 320 319 325 323 313 315
232 233 235 236 237 239 241 242 243 244 244 245 246 246 247 248 249 250 251 251 251 250 250 250 251 252 253 254 256 258 260 262 264 266 268 271 275 277 280 282 282 284 286 290 294 298 301 304 306 310 313 310 299 293 296 299 303 311 317 313 309 311 318 326 327 323 318 318 322 325 323 320 320 321 321 323 325 327 323 315 315 320 318 314 316
232 232 234 235 236 238 240 242 243 244 245 246 246 245 246 247 249 250 251 252 252 252 252 251 251 251 251 253 254 256 258 260 262 263 266 269 273 276 277 278 279 282 285 289 292 295 298 301 304 307 309 305 294 288 290 294 300 307 313 311 308 311 324 330 325 318 316 319 323 323 319 318 323 327 326 325 323 322 317 310 308 307 303 304 309
232 232 233 234 235 236 238 240 242 243 244 245 244 244 244 246 249 250 251 252 252 253 253 252 252 251 251 251 253 254 256 257 259 261 264 268 271 273 275 276 277 280 283 286 289 293 296 299 301 304 306 300 290 284 285 289 295 302 308 310 307 310 323 327 319 315 318 321 323 323 322 325 331 333 331 329 325 322 320 316 311 306 302 302 303
232 232 232 233 234 235 236 239 241 242 243 243 243 242 243 245 247 249 250 251 251 252 252 252 252 252 251 251 250 251 253 255 257 259 263 267 270 272 273 273 276 279 281 284 287 291 294 296 299 301 301 296 288 283 283 285 290 296 303 306 304 308 318 322 317 317 319 320 321 324 328 332 334 334 334 334 331 328 327 326 323 319 316 312 307
234 233 232 232 233 234 236 238 240 241 241 242 243 243 243 244 245 246 248 248 249 250 250 251 251 251 251 250 250 250 251 253 256 258 262 266 269 270 270 272 274 277 279 282 286 289 292 293 296 298 297 292 285 281 281 283 288 293 299 302 302 306 315 319 316 315 316 317 321 325 329 332 333 335 338 340 340 339 338 337 335 331 327 325 321
236 235 234 234 234 235 236 238 240 241 241 241 242 243 244 244 244 245 246 246 247 247 248 249 250 250 250 250 250 250 250 253 255 258 262 265 267 268 269 271 273 275 277 280 283 286 289 291 293 295 293 287 281 279 280 283 288 292 295 299 300 303 312 316 315 314 316 319 323 327 329 331 333 334 338 339 341 343 345 343 340 337 336 335 332
238 238 237 236 235 235 237 239 240 240 240 240 241 243 244 244 244 245 245 245 246 246 247 248 249 249 249 249 250 251 251 253 255 258 261 264 265 267 268 269 271 273 276 278 282 284 286 288 291 292 289 284 279 278 280 283 287 289 290 293 294 295 305 313 313 313 318 323 325 326 327 329 330 332 334 335 333 335 339 341 339 339 339 338 333
238 238 238 237 236 236 236 237 237 237 238 239 240 242 243 244 245 246 246 247 247 247 248 249 249 249 249 250 251 252 252 254 256 258 261 262 264 266 267 268 270 272 274 277 280 282 285 287 289 289 287 283 279 279 281 282 283 284 285 288 287 284 292 302 307 311 316 319 321 322 324 326 328 329 330 331 329 328 328 329 330 331 334 335 332
234 235 236 236 235 235 235 236 236 236 237 238 240 242 243 245 246 247 248 249 249 249 250 250 251 251 251 251 252 252 253 255 256 258 259 261 263 264 266 267 269 271 274 277 279 282 284 286 288 287 284 280 278 278 278 278 279 280 281 284 284 280 282 290 299 307 313 315 318 320 322 324 326 326 326 326 325 324 322 321 321 321 324 329 330
232 232 232 232 232 232 233 234 235 236 236 237 239 241 242 244 245 247 248 248 249 250 250 251 252 252 252 252 252 253 253 254 255 256 258 259 260 262 264 267 269 272 275 278 281 283 285 285 285 283 279 277 275 276 275 275 277 279 280 281 283 282 282 286 293 300 306 309 312 315 317 319 321 322 322 321 321 320 319 318 317 317 320 324 327
233 232 232 232 232 232 233 234 235 236 236 237 239 240 241 242 243 244 246 247 248 249 250 250 251 251 251 252 252 253 253 253 254 255 256 257 259 261 263 266 270 273 276 279 281 283 283 282 280 278 275 274 273 274 274 275 277 279 281 282 284 285 286 289 292 296 301 304 307 310 312 315 317 319 319 319 319 318 316 315 315 318 321 323 324
237 235 234 233 234 234 235 236 236 237 237 238 238 239 240 241 242 243 245 246 247 248 249 249 250 250 251 251 252 252 253 253 254 255 256 258 260 262 265 268 271 274 276 277 279 279 279 277 276 274 272 272 272 273 274 276 277 279 281 283 285 287 289 291 293 296 300 303 305 308 310 312 314 316 316 316 316 315 313 313 314 318 322 324 324
240 238 237 236 234 234 234 235 236 237 237 238 239 240 240 241 242 243 245 247 248 249 249 250 251 251 252 252 252 253 254 255 256 257 259 260 262 265 267 269 271 273 274 275 276 276 275 274 273 272 270 270 271 272 274 275 277 279 280 283 285 287 289 291 294 296 299 301 304 306 307 309 310 312 313 314 314 312 310 308 309 316 322 325 326
242 241 240 238 237 236 235 235 236 236 237 238 239 240 241 241 242 244 245 247 249 250 251 251 251 252 253 253 254 255 256 258 259 261 262 263 265 266 268 269 270 271 272 273 274 273 272 271 270 269 269 269 270 272 274 275 277 278 280 283 285 287 290 292 294 296 298 300 302 304 305 307 308 309 310 312 312 311 306 300 301 308 316 323 326
244 244 242 240 239 238 237 237 237 237 237 238 238 239 241 242 243 245 246 248 250 251 252 252 253 253 254 255 256 257 258 260 260 261 262 264 265 266 267 268 269 270 271 271 271 270 270 269 267 266 267 268 270 272 274 275 277 278 280 283 285 287 290 292 294 297 298 300 302 304 305 306 307 308 309 310 311 311 305 297 294 300 310 317 321
243 244 244 243 241 239 238 237 237 237 238 238 238 239 240 242 243 245 247 248 250 251 252 253 254 254 255 256 257 258 258 259 260 261 262 263 264 265 267 267 268 269 269 269 269 268 267 266 266 265 266 268 269 272 274 275 277 279 281 283 285 287 290 292 294 296 298 300 302 303 305 307 308 308 309 310 310 311 308 299 291 292 300 310 315
241 242 243 243 242 241 240 238 238 237 237 238 238 239 240 241 242 244 246 247 249 250 251 253 253 254 255 255 256 257 258 259 260 261 262 263 264 265 265 266 267 267 267 267 266 266 265 265 264 265 266 268 270 272 274 276 278 279 281 283 284 287 290 293 294 296 298 300 301 303 305 306 308 308 309 310 311 311 309 304 294 289 293 302 311
240 241 241 242 241 241 241 240 239 239 238 238 239 239 240 241 242 243 244 246 247 248 250 251 253 253 254 255 256 257 258 259 260 261 262 263 264 265 265 265 266 265 265 265 264 264 264 264 265 266 267 269 271 273 275 277 278 280 281 283 285 288 291 292 294 296 298 300 301 303 304 306 307 308 309 310 311 311 308 305 300 294 293 300 308
239 239 240 241 241 241 241 241 241 241 240 240 240 240 240 241 242 242 243 245 246 248 249 250 252 253 254 255 256 258 259 260 261 262 263 264 264 265 265 265 264 264 264 264 263 263 264 264 265 266 268 270 273 274 276 277 278 280 281 283 286 289 290 291 293 296 298 299 301 302 303 305 306 307 308 309 311 310 307 305 302 299 298 302 308
237 238 238 239 240 241 241 241 241 241 241 241 241 241 241 242 242 243 244 245 246 247 248 250 251 253 254 256 257 258 260 261 262 263 263 264 264 265 265 265 264 264 264 264 264 264 264 265 266 268 269 271 273 274 275 277 278 279 281 284 287 288 289 291 293 295 297 299 300 301 303 304 305 306 307 308 309 309 307 304 302 301 302 305 309
238 237 237 237 238 239 240 241 241 241 241 242 242 242 242 243 243 244 245 246 247 248 249 250 252 254 255 256 257 258 259 260 261 262 262 263 263 264 264 264 264 263 263 264 264 264 265 266 267 269 271 273 274 275 276 277 278 280 283 286 287 288 289 291 293 295 296 298 299 300 302 303 304 305 306 307 308 307 306 303 302 302 303 306 309
238 237 237 237 237 238 239 240 240 241 241 242 242 243 244 244 245 245 246 247 248 249 250 251 252 254 255 256 257 258 259 260 260 261 261 262 262 262 263 263 263 263 264 264 265 265 266 268 269 271 272 273 274 275 275 276 278 282 284 285 286 287 289 291 293 294 296 298 299 300 301 302 303 303 304 305 306 305 303 302 301 302 303 306 310
238 239 238 238 238 239 239 240 240 241 241 241 242 243 243 244 245 245 246 248 249 250 251 252 253 254 256 257 258 258 259 260 260 261 262 262 263 264 264 264 265 265 265 265 266 267 269 270 271 272 272 272 273 274 275 277 280 282 283 284 286 287 289 291 293 294 296 297 298 299 300 301 301 302 303 304 304 303 300 299 300 301 303 306 310
240 240 241 240 240 240 241 242 242 242 242 242 242 242 243 243 244 245 246 248 249 251 252 254 255 256 257 257 258 259 260 261 262 263 264 265 265 266 267 267 268 268 268 268 268 269 270 270 270 270 271 272 273 275 277 278 280 281 282 285 287 288 289 291 292 294 295 296 296 297 298 299 300 301 302 303 303 302 298 297 299 301 303 307 311
242 242 242 243 243 242 243 244 245 245 245 245 245 245 245 244 245 246 247 249 250 252 253 255 256 257 258 260 261 263 263 264 265 265 266 267 267 268 269 269 269 270 269 269 269 269 268 267 267 268 270 273 275 277 278 279 280 282 283 285 287 288 289 291 292 293 294 295 296 296 297 299 300 300 301 302 302 300 297 297 299 300 303 307 311
244 244 244 244 244 244 245 246 247 248 248 248 248 249 249 249 248 249 249 250 252 255 257 258 259 260 262 263 265 267 268 269 269 269 269 269 269 269 270 272 272 271 270 270 270 269 268 267 268 270 273 275 277 279 280 281 281 283 284 285 287 288 289 290 292 292 293 294 295 296 297 298 299 300 301 301 300 297 297 298 299 300 303 307 310
245 245 245 245 245 245 246 247 249 249 250 250 251 252 253 253 253 253 253 252 252 255 258 261 262 263 265 268 271 275 278 278 275 273 271 270 269 268 269 270 270 270 269 270 270 271 270 270 271 273 275 277 278 279 280 281 282 283 285 286 288 289 290 290 291 292 293 294 295 296 297 298 299 300 300 299 299 299 299 300 300 301 303 306 309
243 244 245 246 246 246 246 246 248 249 250 251 251 253 254 255 255 255 255 255 254 254 257 259 261 263 265 269 274 277 278 277 274 272 270 270 269 268 267 267 267 267 268 269 271 272 273 274 274 275 276 276 277 278 280 282 283 285 286 287 288 288 289 290 291 292 293 294 295 296 297 298 299 299 298 298 299 301 301 302 302 302 304 306 307
239 241 242 244 245 246 247 247 248 249 250 250 251 252 254 255 255 255 255 255 255 256 257 260 263 264 264 263 263 263 263 264 265 266 268 269 270 269 269 268 268 269 270 271 272 274 275 276 276 277 277 277 278 280 282 283 284 285 286 287 287 288 289 290 291 292 293 294 295 296 297 297 297 297 298 299 301 303 304 305 305 305 306 306 307
236 237 239 241 243 245 247 249 250 250 250 250 251 252 253 254 255 256 256 256 256 256 256 257 260 260 259 257 256 255 256 258 260 264 266 269 270 270 270 270 271 271 272 273 274 276 277 278 278 279 280 281 282 283 284 284 285 285 286 287 288 288 289 290 291 292 293 294 295 295 295 295 296 297 299 300 302 304 306 307 307 306 306 306 306
235 236 238 240 242 244 246 248 250 251 251 252 252 253 254 255 256 257 257 257 258 258 257 256 256 257 258 258 258 258 258 259 260 263 265 267 268 269 271 272 273 274 275 275 277 278 279 280 281 282 282 283 283 283 284 284 285 285 286 286 287 288 289 290 291 292 293 293 293 293 294 296 297 298 299 301 303 305 306 307 306 305 305 305 305
236 237 238 239 241 243 245 247 248 250 251 252 253 254 255 256 257 258 259 260 260 260 260 259 258 259 260 261 261 261 262 262 263 265 267 268 269 271 272 273 274 276 277 278 279 279 280 280 281 281 281 282 282 282 283 283 283 284 285 286 287 288 289 289 290 291 292 292 292 293 295 296 297 298 299 301 302 304 305 305 304 304 304 304 304
237 238 239 240 241 242 243 245 246 247 249 251 252 254 255 257 258 259 261 262 264 265 266 265 264 263 262 262 262 263 264 265 267 268 269 270 271 272 273 274 275 276 277 278 278 279 279 279 279 280 280 280 281 281 282 282 283 283 284 285 286 287 288 288 289 290 291 292 293 294 295 296 297 299 300 301 302 302 303 303 303 303 303 303 303
237 238 239 240 241 242 243 244 245 246 247 249 252 254 255 257 258 260 261 263 264 265 265 266 266 266 266 265 265 266 266 267 268 269 269 270 270 271 272 273 274 275 276 276 276 277 277 278 278 278 278 278 279 280 280 281 282 283 284 285 286 287 288 289 290 291 291 292 294 295 295 297 299 300 301 301 302 301 301 302 302 302 302 302 302
237 238 239 240 241 242 244 244 245 246 247 249 252 255 256 256 257 258 259 261 262 262 263 263 264 264 265 265 265 265 264 264 264 265 266 267 268 268 269 270 270 272 272 273 274 274 275 275 275 275 276 277 278 279 280 281 282 283 284 285 286 288 289 291 292 292 292 293 293 294 295 297 299 300 301 301 301 301 301 301 302 302 302 302 301
Height
10966 10968 10971 10974 10977 10978 10980 10982 10984 10986 10987 10988 10989 10990 10991 10992 10993 10994 10995 10996 10998 10999 11000 11001 11002 11003 11005 11006 11007 11007 11008 11008 11008 11008 11008 11008 11008 11007 11007 11006 11005 11004 11003 11002 11001 10999 10998 10997 10996 10995 10994 10992 10991 10990 10988 10986 10984 10981 10979 10977 10975 10973 10971 10969 10967 10965 10963 10961 10959 10957 10954 10951 10947 10945 10943 10940 10938 10936 10934 10932 10930 10928 10926 10924 10924
10963 10966 10969 10971 10974 10976 10978 10981 10983 10984 10985 10986 10987 10988 10989 10990 10991 10992 10994 10995 10996 10997 10999 11000 11000 11002 11003 11004 11005 11006 11006 11006 11007 11007 11007 11007 11006 11006 11006 11005 11004 11003 11002 11001 10999 10998 10997 10996 10995 10994 10993 10992 10990 10988 10987 10984 10982 10980 10978 10976 10974 10972 10970 10969 10967 10964 10962 10960 10958 10956 10953 10950 10946 10944 10942 10939 10937 10935 10934 10931 10930 10929 10927 10926 10925
10961 10964 10966 10969 10972 10974 10976 10978 10980 10981 10982 10984 10985 10986 10987 10988 10989 10991 10992 10993 10995 10996 10997 10998 10999 11000 11001 11003 11003 11004 11005 11005 11005 11005 11005 11005 11005 11005 11005 11004 11003 11002 11000 10999 10997 10996 10995 10994 10993 10992 10991 10990 10989 10987 10985 10983 10981 10979 10977 10975 10973 10971 10969 10968 10966 10964 10961 10959 10957 10955 10953 10949 10946 10943 10941 10939 10937 10935 10934 10932 10931 10930 10929 10928 10927
10959 10962 10964 10966 10969 10971 10973 10974 10976 10978 10980 10981 10983 10984 10985 10986 10987 10989 10990 10991 10993 10994 10995 10996 10997 10998 10999 11001 11002 11002 11003 11003 11003 11003 11003 11003 11003 11003 11003 11003 11002 11001 10999 10998 10996 10995 10994 10992 10991 10990 10989 10988 10987 10985 10983 10981 10979 10977 10976 10974 10972 10970 10968 10967 10965 10963 10960 10957 10955 10954 10952 10949 10946 10944 10941 10940 10938 10935 10934 10933 10932 10931 10930 10930 10929
10956 10958 10960 10964 10966 10968 10969 10970 10972 10974 10977 10979 10980 10981 10983 10984 10985 10987 10988 10990 10991 10992 10993 10994 10995 10997 10998 10999 11000 11000 11001 11001 11001 11001 11001 11001 11001 11002 11001 11001 11000 10999 10998 10997 10995 10994 10992 10991 10989 10988 10987 10986 10985 10983 10981 10979 10977 10976 10975 10973 10971 10968 10967 10966 10964 10962 10959 10956 10954 10953 10951 10948 10945 10943 10941 10940 10938 10936 10934 10934 10932 10932 10931 10931 10930
10952 10954 10957 10960 10962 10964 10965 10966 10968 10971 10974 10976 10977 10978 10980 10981 10983 10985 10986 10988 10989 10990 10991 10992 10994 10995 10996 10996 10998 10998 10999 10999 11000 11000 11000 11000 11000 11000 10999 10999 10998 10997 10996 10995 10994 10993 10991 10990 10988 10987 10985 10984 10982 10981 10979 10977 10976 10975 10974 10972 10970 10967 10966 10964 10962 10959 10957 10955 10953 10951 10949 10946 10944 10942 10941 10939 10937 10935 10935 10934 10933 10933 10932 10932 10931
10949 10951 10953 10956 10958 10960 10962 10963 10965 10968 10971 10973 10975 10976 10977 10979 10980 10982 10983 10985 10986 10987 10989 10990 10992 10993 10993 10995 10996 10996 10997 10997 10998 10998 10998 10998 10998 10998 10997 10996 10996 10995 10994 10993 10992 10991 10990 10989 10987 10986 10984 10982 10980 10979 10977 10975 10974 10973 10972 10971 10969 10966 10964 10962 10960 10957 10954 10953 10950 10949 10947 10946 10944 10942 10940 10938 10936 10935 10934 10934 10934 10933 10933 10932 10931
10945 10948 10950 10952 10954 10957 10958 10960 10962 10965 10968 10970 10972 10973 10974 10976 10978 10979 10980 10982 10983 10984 10986 10988 10989 10990 10991 10993 10994 10994 10995 10995 10995 10995 10996 10996 10996 10996 10995 10994 10993 10992 10992 10991 10990 10989 10988 10987 10986 10984 10982 10980 10978 10977 10975 10974 10972 10971 10970 10969 10967 10964 10962 10960 10957 10954 10952 10950 10948 10946 10945 10945 10944 10942 10940 10938 10936 10934 10934 10933 10933 10932 10931 10930 10930
10941 10944 10946 10948 10950 10953 10956 10958 10960 10962 10965 10966 10967 10969 10971 10973 10975 10976 10977 10979 10980 10982 10983 10984 10985 10987 10988 10990 10991 10991 10992 10993 10993 10993 10993 10994 10994 10994 10993 10992 10991 10990 10989 10988 10988 10986 10985 10985 10984 10983 10981 10979 10977 10975 10974 10973 10971 10970 10969 10967 10965 10963 10961 10958 10955 10953 10950 10948 10946 10945 10944 10944 10943 10942 10940 10938 10936 10934 10933 10932 10931 10930 10928 10926 10925
10937 10939 10942 10944 10948 10951 10953 10955 10957 10959 10960 10961 10963 10965 10967 10970 10972 10973 10975 10976 10978 10979 10980 10981 10982 10984 10986 10987 10987 10988 10989 10990 10991 10990 10991 10991 10991 10991 10991 10990 10989 10988 10987 10986 10985 10984 10983 10982 10981 10980 10978 10977 10975 10973 10972 10971 10970 10969 10968 10966 10964 10961 10960 10958 10955 10952 10949 10947 10946 10944 10942 10942 10942 10941 10938 10937 10935 10933 10932 10931 10929 10927 10925 10922 10920
10933 10935 10938 10941 10944 10947 10949 10952 10954 10955 10956 10957 10959 10961 10964 10966 10968 10970 10972 10973 10975 10976 10976 10977 10979 10981 10983 10983 10984 10985 10986 10987 10987 10987 10988 10988 10988 10988 10987 10987 10986 10985 10984 10983 10982 10982 10981 10980 10979 10977 10976 10974 10973 10971 10970 10969 10968 10968 10966 10964 10961 10959 10958 10956 10954 10951 10948 10946 10944 10943 10941 10940 10940 10939 10937 10935 10934 10932 10931 10930 10928 10926 10923 10920 10917
10929 10932 10935 10938 10940 10942 10945 10947 10949 10951 10952 10954 10956 10958 10960 10962 10964 10965 10967 10969 10971 10972 10973 10974 10976 10978 10979 10979 10980 10982 10983 10984 10983 10984 10984 10984 10984 10984 10984 10983 10983 10982 10982 10981 10980 10979 10978 10977 10976 10975 10974 10972 10970 10969 10968 10967 10966 10965 10964 10962 10959 10957 10955 10953 10951 10950 10947 10944 10942 10942 10941 10939 10938 10936 10935 10934 10932 10931 10929 10927 10925 10923 10920 10917 10913
10925 10929 10932 10934 10936 10938 10941 10943 10945 10947 10949 10951 10953 10954 10955 10957 10959 10961 10963 10965 10967 10967 10968 10970 10972 10974 10975 10976 10977 10978 10979 10980 10980 10980 10980 10981 10981 10980 10980 10980 10979 10979 10978 10978 10977 10977 10976 10975 10974 10973 10971 10970 10968 10967 10966 10965 10964 10963 10962 10959 10956 10953 10952 10950 10949 10947 10945 10943 10941 10939 10939 10939 10937 10935 10934 10933 10931 10929 10927 10923 10921 10920 10917 10913 10908
10922 10925 10928 10930 10932 10935 10937 10939 10941 10944 10946 10948 10950 10950 10951 10953 10954 10956 10959 10960 10961 10962 10964 10966 10968 10969 10970 10972 10973 10974 10975 10976 10976 10976 10976 10977 10977 10976 10976 10976 10976 10976 10975 10974 10974 10974 10973 10972 10971 10970 10969 10968 10966 10965 10964 10963 10962 10961 10959 10956 10952 10950 10948 10946 10946 10944 10943 10942 10940 10938 10937 10937 10935 10933 10931 10930 10929 10927 10924 10918 10915 10915 10913 10908 10904
10918 10921 10924 10926 10929 10931 10933 10935 10937 10940 10942 10944 10945 10946 10947 10949 10951 10952 10954 10955 10956 10957 10960 10961 10962 10964 10966 10968 10969 10970 10971 10972 10972 10972 10973 10973 10972 10972 10972 10973 10972 10972 10972 10971 10971 10970 10970 10969 10968 10967 10967 10965 10964 10963 10962 10961 10960 10959 10957 10953 10950 10947 10945 10943 10942 10940 10939 10939 10939 10938 10936 10934 10933 10929 10927 10926 10926 10924 10919 10913 10910 10911 10908 10903 10900
10914 10917 10919 10922 10924 10927 10929 10931 10934 10936 10937 10939 10940 10941 10943 10945 10947 10948 10950 10950 10951 10953 10954 10956 10958 10960 10962 10963 10964 10965 10967 10968 10968 10968 10969 10969 10968 10968 10968 10969 10968 10968 10968 10968 10967 10967 10966 10966 10965 10964 10964 10963 10962 10961 10959 10958 10957 10956 10955 10951 10947 10945 10943 10940 10938 10936 10934 10934 10935 10934 10932 10930 10928 10925 10922 10922 10922 10922 10917 10908 10904 10906 10904 10899 10897
10910 10913 10915 10918 10921 10923 10926 10928 10930 10932 10933 10934 10935 10936 10938 10940 10942 10944 10944 10945 10947 10948 10949 10951 10953 10956 10957 10958 10959 10961 10963 10964 10964 10964 10965 10964 10964 10964 10965 10965 10964 10964 10964 10964 10964 10964 10963 10962 10962 10961 10961 10960 10960 10958 10957 10956 10954 10954 10952 10948 10943 10941 10939 10936 10934 10931 10929 10929 10930 10930 10928 10926 10924 10921 10919 10917 10918 10922 10920 10910 10904 10906 10904 10897 10893
10905 10908 10911 10914 10916 10919 10921 10924 10926 10927 10928 10929 10930 10931 10933 10935 10937 10938 10939 10940 10942 10943 10945 10947 10948 10950 10952 10953 10955 10957 10958 10959 10959 10960 10960 10960 10960 10960 10961 10961 10960 10961 10960 10960 10960 10960 10959 10959 10958 10958 10958 10958 10957 10956 10955 10953 10951 10951 10950 10946 10940 10937 10935 10933 10929 10925 10923 10923 10923 10923 10922 10921 10919 10916 10912 10910 10910 10914 10915 10910 10906 10907 10904 10897 10892
10900 10903 10907 10910 10912 10914 10917 10919 10921 10922 10924 10925 10926 10927 10928 10930 10931 10932 10933 10935 10936 10938 10940 10941 10943 10945 10946 10948 10950 10952 10953 10954 10954 10955 10955 10955 10955 10956 10956 10956 10956 10957 10956 10956 10956 10956 10956 10955 10954 10953 10954 10954 10954 10953 10952 10950 10949 10948 10947 10944 10938 10934 10933 10931 10926 10921 10919 10918 10916 10916 10916 10915 10912 10908 10905 10903 10902 10903 10904 10904 10902 10901 10899 10895 10891
10895 10898 10902 10904 10906 10909 10912 10914 10916 10918 10919 10921 10921 10922 10923 10924 10925 10926 10927 10929 10931 10933 10934 10936 10937 10939 10941 10943 10945 10946 10947 10948 10949 10950 10950 10950 10950 10951 10951 10952 10952 10953 10952 10951 10951 10952 10951 10951 10950 10949 10949 10949 10949 10949 10948 10947 10946 10945 10945 10942 10937 10932 10931 10928 10923 10920 10918 10914 10911 10910 10910 10908 10906 10903 10900 10897 10895 10895 10895 10895 10894 10893 10891 10889 10886
10889 10892 10895 10898 10901 10904 10907 10910 10912 10914 10915 10916 10917 10917 10918 10919 10920 10921 10923 10924 10926 10927 10929 10930 10932 10934 10935 10937 10938 10940 10942 10943 10944 10945 10945 10945 10946 10946 10946 10947 10948 10948 10947 10947 10947 10947 10946 10946 10945 10945 10944 10944 10945 10945 10944 10943 10942 10941 10941 10940 10935 10931 10929 10926 10921 10918 10916 10913 10910 10907 10905 10903 10900 10897 10894 10891 10887 10885 10885 10884 10883 10882 10880 10879 10878
10883 10887 10890 10893 10896 10900 10903 10906 10908 10910 10911 10911 10912 10912 10913 10914 10915 10917 10918 10919 10921 10922 10924 10925 10926 10928 10930 10931 10932 10934 10936 10938 10939 10940 10940 10940 10940 10941 10941 10942 10944 10943 10942 10942 10942 10942 10942 10941 10941 10941 10941 10940 10940 10940 10939 10939 10938 10937 10938 10938 10934 10930 10929 10926 10918 10912 10911 10910 10907 10903 10900 10898 10895 10891 10889 10886 10882 10881 10881 10879 10878 10876 10874 10872 10869
10879 10882 10886 10889 10892 10896 10899 10902 10903 10904 10905 10906 10907 10908 10909 10910 10911 10912 10913 10914 10916 10917 10918 10920 10921 10923 10924 10925 10926 10928 10931 10933 10934 10935 10935 10935 10935 10935 10936 10938 10939 10938 10937 10937 10938 10937 10937 10936 10936 10936 10936 10936 10935 10935 10934 10934 10934 10933 10933 10935 10933 10929 10929 10925 10915 10907 10906 10906 10905 10902 10899 10897 10894 10891 10888 10886 10882 10881 10880 10878 10876 10874 10872 10869 10866
10874 10877 10881 10884 10887 10891 10893 10895 10896 10897 10899 10900 10902 10903 10904 10906 10906 10907 10908 10909 10911 10912 10913 10915 10916 10917 10919 10920 10922 10923 10926 10927 10928 10929 10930 10930 10930 10930 10931 10932 10933 10933 10932 10932 10933 10933 10932 10932 10931 10931 10930 10930 10929 10929 10929 10929 10929 10929 10929 10930 10930 10928 10925 10920 10911 10904 10902 10901 10899 10898 10896 10894 10892 10889 10886 10883 10880 10879 10878 10876 10873 10871 10870 10868 10864
10868 10871 10874 10878 10881 10884 10886 10887 10889 10891 10893 10896 10897 10898 10900 10901 10902 10903 10904 10905 10906 10907 10909 10910 10911 10912 10914 10915 10917 10919 10921 10922 10923 10923 10924 10925 10925 10925 10925 10926 10927 10927 10927 10927 10927 10927 10926 10925 10925 10924 10924 10924 10923 10924 10924 10924 10924 10925 10924 10925 10926 10925 10921 10914 10907 10902 10900 10896 10893 10891 10889 10887 10886 10884 10882 10879 10877 10875 10875 10872 10869 10866 10865 10864 10860
10862 10865 10867 10870 10873 10875 10877 10879 10882 10885 10888 10890 10891 10893 10895 10896 10897 10898 10898 10899 10901 10902 10904 10905 10906 10907 10909 10911 10912 10914 10915 10916 10917 10917 10919 10919 10920 10920 10920 10920 10921 10921 10921 10920 10921 10921 10920 10918 10918 10917 10917 10918 10918 10918 10919 10919 10919 10919 10919 10919 10919 10919 10917 10913 10907 10903 10899 10896 10893 10890 10887 10885 10883 10881 10879 10876 10873 10872 10871 10869 10865 10861 10860 10859 10856
10857 10859 10861 10863 10866 10868 10870 10873 10876 10879 10882 10884 10886 10888 10889 10890 10891 10892 10893 10894 10896 10898 10899 10900 10901 10902 10904 10906 10908 10909 10910 10910 10911 10912 10913 10914 10915 10915 10915 10916 10916 10916 10916 10915 10916 10915 10914 10913 10912 10912 10912 10913 10913 10913 10913 10913 10914 10913 10913 10913 10912 10912 10911 10910 10906 10902 10899 10896 10893 10890 10886 10884 10882 10879 10876 10873 10869 10867 10866 10865 10862 10859 10856 10854 10852
10852 10854 10856 10858 10861 10863 10865 10868 10870 10873 10876 10879 10880 10882 10883 10884 10885 10886 10887 10889 10891 10892 10894 10895 10896 10898 10900 10901 10903 10903 10904 10905 10906 10907 10908 10909 10909 10910 10911 10911 10912 10912 10911 10911 10911 10911 10909 10908 10908 10908 10907 10907 10907 10907 10907 10907 10908 10907 10907 10906 10906 10905 10905 10904 10902 10899 10896 10893 10890 10888 10885 10882 10880 10877 10874 10871 10867 10864 10862 10860 10858 10855 10853 10850 10847
10848 10850 10851 10853 10855 10857 10860 10862 10864 10867 10870 10873 10875 10876 10877 10879 10880 10880 10882 10884 10885 10887 10889 10890 10892 10894 10895 10896 10897 10898 10898 10900 10901 10902 10903 10904 10904 10905 10906 10906 10906 10907 10906 10906 10906 10905 10904 10904 10903 10902 10902 10901 10901 10901 10901 10901 10902 10901 10901 10900 10899 10899 10898 10897 10895 10894 10892 10889 10887 10885 10882 10880 10877 10875 10872 10869 10864 10860 10858 10857 10854 10851 10848 10845 10842
10843 10845 10847 10848 10850 10852 10854 10856 10858 10861 10864 10866 10869 10870 10871 10873 10874 10875 10877 10879 10880 10882 10883 10885 10887 10889 10890 10891 10892 10893 10893 10895 10896 10897 10897 10898 10899 10900 10900 10900 10900 10900 10900 10900 10900 10899 10899 10898 10897 10896 10896 10896 10895 10895 10895 10895 10895 10895 10894 10894 10893 10892 10891 10890 10889 10887 10886 10884 10882 10880 10878 10875 10873 10871 10868 10865 10861 10857 10854 10852 10849 10847 10844 10841 10837
10838 10840 10841 10843 10845 10847 10848 10850 10853 10855 10858 10860 10862 10864 10865 10867 10868 10870 10872 10874 10875 10876 10878 10879 10881 10883 10884 10885 10886 10887 10888 10889 10890 10890 10891 10891 10892 10893 10893 10893 10894 10893 10894 10894 10893 10893 10892 10892 10891 10891 10890 10890 10889 10889 10889 10889 10889 10888 10888 10887 10887 10886 10884 10883 10882 10880 10879 10877 10875 10873 10871 10869 10867 10864 10862 10860 10857 10853 10849 10846 10843 10840 10838 10835 10833
10833 10834 10836 10838 10840 10842 10843 10845 10847 10849 10852 10854 10856 10858 10859 10861 10863 10865 10867 10869 10870 10871 10872 10873 10875 10877 10878 10879 10880 10880 10881 10882 10883 10883 10884 10885 10885 10886 10886 10886 10886 10886 10886 10886 10886 10886 10885 10885 10885 10884 10884 10884 10883 10883 10883 10882 10882 10882 10881 10881 10880 10879 10878 10876 10875 10873 10872 10870 10868 10866 10864 10861 10858 10856 10854 10852 10850 10847 10844 10840 10837 10834 10831 10828 10825
10828 10829 10831 10833 10834 10836 10838 10840 10842 10844 10846 10848 10849 10851 10853 10855 10858 10860 10861 10863 10864 10865 10866 10867 10869 10871 10872 10872 10873 10873 10874 10874 10875 10876 10877 10877 10878 10878 10878 10878 10879 10879 10879 10879 10879 10879 10878 10878 10878 10878 10878 10878 10877 10877 10876 10876 10875 10875 10874 10874 10873 10872 10870 10869 10867 10865 10864 10862 10860 10858 10856 10853 10851 10848 10845 10843 10841 10839 10837 10834 10831 10828 10825 10822 10818
10822 10824 10826 10827 10829 10831 10833 10834 10836 10838 10840 10842 10844 10845 10847 10849 10851 10853 10855 10856 10857 10859 10860 10861 10862 10863 10864 10865 10866 10866 10867 10868 10868 10869 10869 10870 10870 10871 10871 10871 10871 10871 10871 10871 10871 10871 10872 10872 10871 10871 10871 10871 10871 10871 10870 10869 10868 10868 10867 10866 10865 10864 10863 10861 10859 10857 10855 10853 10851 10849 10847 10845 10843 10840 10837 10834 10832 10830 10828 10826 10823 10821 10818 10815 10811
10817 10819 10821 10822 10824 10826 10827 10829 10831 10833 10834 10836 10838 10839 10841 10843 10845 10846 10848 10849 10850 10852 10853 10854 10854 10855 10857 10858 10859 10860 10860 10861 10862 10862 10862 10863 10864 10864 10864 10864 10864 10864 10864 10864 10864 10864 10865 10865 10865 10865 10865 10865 10865 10864 10863 10862 10861 10860 10859 10858 10857 10856 10854 10852 10850 10849 10847 10845 10842 10840 10839 10837 10835 10832 10830 10827 10824 10821 10818 10816 10815 10812 10810 10807 10803
10813 10814 10816 10818 10819 10820 10822 10824 10826 10827 10829 10831 10832 10834 10835 10837 10838 10840 10841 10842 10843 10845 10846 10847 10848 10849 10851 10852 10853 10854 10854 10855 10855 10855 10856 10856 10856 10856 10857 10857 10857 10857 10857 10858 10858 10858 10858 10858 10858 10858 10858 10858 10858 10857 10856 10855 10854 10852 10851 10851 10850 10848 10846 10844 10843 10841 10839 10837 10834 10832 10830 10828 10826 10823 10821 10819 10816 10814 10811 10808 10806 10804 10801 10798 10794
10807 10809 10811 10813 10814 10815 10817 10819 10820 10822 10824 10825 10827 10828 10830 10831 10832 10834 10835 10836 10837 10839 10840 10842 10843 10844 10845 10846 10846 10847 10848 10848 10848 10848 10848 10848 10849 10849 10849 10850 10850 10850 10851 10851 10851 10852 10852 10852 10852 10852 10852 10852 10851 10850 10848 10847 10845 10845 10845 10844 10842 10840 10838 10836 10835 10833 10831 10828 10826 10823 10821 10819 10817 10814 10812 10810 10808 10806 10803 10800 10798 10795 10792 10789 10786
10800 10802 10805 10807 10809 10810 10812 10813 10815 10816 10818 10819 10821 10823 10824 10826 10827 10828 10829 10830 10832 10833 10835 10836 10837 10838 10839 10840 10840 10840 10841 10841 10841 10841 10841 10841 10841 10841 10842 10843 10843 10844 10844 10844 10845 10845 10846 10846 10845 10845 10845 10844 10842 10841 10839 10838 10838 10838 10838 10836 10833 10831 10830 10828 10826 10824 10822 10820 10817 10815 10813 10811 10808 10806 10803 10801 10799 10797 10795 10792 10789 10787 10784 10781 10777
10793 10795 10798 10800 10802 10804 10806 10807 10809 10811 10812 10814 10816 10817 10819 10820 10821 10822 10823 10824 10826 10828 10830 10830 10831 10832 10833 10834 10834 10834 10834 10834 10834 10834 10834 10834 10834 10835 10835 10836 10837 10838 10838 10838 10838 10839 10839 10839 10838 10837 10836 10834 10833 10832 10831 10831 10832 10831 10829 10826 10825 10823 10822 10820 10818 10816 10813 10811 10809 10806 10804 10802 10800 10797 10794 10792 10790 10788 10786 10783 10780 10778 10775 10772 10769
10786 10788 10790 10793 10795 10797 10799 10800 10802 10804 10806 10808 10810 10811 10812 10813 10814 10816 10817 10819 10821 10823 10824 10825 10826 10827 10827 10828 10828 10828 10828 10829 10828 10828 10828 10828 10828 10829 10829 10829 10830 10831 10832 10832 10832 10832 10831 10830 10828 10827 10826 10825 10824 10824 10824 10824 10823 10821 10819 10817 10816 10815 10813 10811 10809 10806 10804 10802 10799 10797 10795 10794 10791 10788 10786 10783 10781 10778 10776 10774 10771 10768 10765 10762 10759
10778 10781 10783 10785 10787 10789 10791 10793 10795 10797 10799 10801 10803 10804 10805 10807 10808 10810 10812 10813 10815 10817 10818 10819 10820 10821 10821 10822 10822 10823 10823 10823 10823 10822 10822 10822 10822 10822 10822 10822 10823 10823 10823 10823 10823 10823 10821 10820 10818 10817 10817 10817 10817 10817 10817 10815 10813 10811 10809 10808 10807 10805 10804 10802 10799 10797 10794 10792 10789 10787 10786 10784 10782 10779 10777 10774 10771 10769 10766 10764 10761 10759 10756 10753 10749
10771 10773 10776 10778 10780 10782 10784 10786 10788 10790 10792 10794 10795 10797 10798 10800 10802 10804 10806 10807 10809 10810 10811 10812 10813 10814 10816 10816 10817 10817 10818 10818 10817 10816 10815 10815 10816 10815 10815 10815 10814 10814 10814 10814 10813 10812 10811 10810 10809 10809 10809 10809 10809 10808 10807 10804 10802 10801 10800 10798 10797 10795 10793 10791 10789 10786 10784 10781 10779 10777 10776 10774 10772 10770 10767 10765 10762 10760 10758 10755 10752 10749 10746 10742 10739
10763 10765 10767 10770 10772 10775 10777 10779 10781 10783 10784 10786 10787 10789 10791 10793 10795 10797 10799 10801 10803 10804 10803 10803 10805 10808 10810 10811 10811 10811 10811 10811 10809 10808 10807 10807 10807 10807 10807 10806 10806 10805 10804 10803 10802 10802 10801 10801 10801 10801 10801 10800 10799 10797 10795 10794 10792 10791 10790 10788 10786 10784 10782 10780 10778 10775 10773 10770 10768 10767 10765 10764 10762 10760 10757 10755 10753 10751 10749 10746 10743 10740 10736 10732 10728
10755 10757 10759 10761 10763 10766 10769 10771 10773 10775 10777 10778 10780 10781 10783 10785 10787 10789 10790 10793 10795 10796 10795 10795 10797 10801 10805 10808 10808 10807 10804 10801 10797 10795 10795 10796 10797 10797 10797 10796 10795 10794 10793 10792 10792 10792 10792 10792 10793 10792 10791 10790 10788 10786 10785 10784 10783 10781 10779 10777 10774 10772 10770 10769 10766 10764 10762 10760 10758 10756 10754 10753 10751 10749 10747 10746 10744 10742 10740 10737 10734 10730 10726 10722 10717
10747 10749 10751 10753 10755 10757 10760 10762 10765 10767 10769 10770 10772 10773 10775 10777 10778 10780 10782 10785 10787 10788 10789 10790 10791 10794 10799 10801 10799 10795 10791 10787 10783 10781 10783 10785 10786 10786 10785 10785 10784 10783 10783 10782 10782 10782 10782 10783 10782 10781 10780 10779 10777 10776 10775 10773 10771 10769 10767 10765 10763 10761 10759 10757 10755 10753 10751 10749 10747 10745 10743 10741 10739 10738 10736 10735 10733 10731 10729 10726 10722 10719 10715 10712 10708
10738 10740 10742 10744 10746 10748 10751 10753 10756 10758 10760 10762 10764 10765 10767 10768 10770 10771 10774 10776 10778 10780 10783 10784 10783 10783 10786 10786 10783 10779 10777 10775 10773 10772 10774 10775 10775 10775 10774 10774 10774 10773 10773 10772 10772 10772 10771 10770 10770 10769 10768 10767 10766 10765 10763 10761 10759 10757 10754 10752 10751 10749 10748 10746 10744 10742 10740 10738 10736 10734 10732 10730 10728 10726 10724 10722 10720 10718 10715 10712 10709 10706 10704 10701 10697
10729 10732 10734 10736 10738 10741 10743 10745 10747 10749 10751 10753 10755 10757 10758 10759 10761 10762 10764 10766 10768 10770 10773 10773 10773 10772 10772 10771 10770 10769 10768 10768 10766 10765 10765 10765 10765 10764 10764 10763 10763 10763 10763 10762 10761 10760 10759 10758 10757 10756 10755 10755 10753 10752 10750 10749 10747 10744 10742 10740 10739 10738 10737 10735 10734 10732 10730 10728 10725 10723 10721 10719 10717 10714 10712 10709 10706 10703 10700 10698 10695 10693 10691 10688 10685
10720 10723 10725 10727 10730 10733 10735 10737 10738 10740 10742 10744 10746 10747 10749 10750 10751 10753 10755 10757 10759 10760 10761 10763 10764 10764 10762 10760 10759 10758 10758 10757 10757 10756 10756 10755 10754 10753 10753 10752 10751 10751 10751 10750 10749 10748 10748 10746 10745 10744 10743 10742 10741 10740 10739 10737 10735 10733 10731 10730 10729 10727 10726 10725 10723 10721 10719 10717 10714 10712 10710 10707 10705 10703 10700 10697 10693 10690 10687 10684 10681 10679 10676 10674 10671
10710 10713 10716 10718 10721 10724 10726 10728 10730 10731 10733 10734 10736 10738 10739 10741 10742 10744 10745 10748 10750 10750 10750 10751 10752 10753 10752 10750 10748 10748 10747 10747 10746 10745 10744 10743 10742 10741 10741 10740 10739 10739 10739 10738 10737 10737 10736 10735 10734 10733 10732 10730 10729 10728 10726 10725 10723 10721 10720 10719 10718 10716 10715 10714 10712 10710 10708 10705 10703 10700 10697 10695 10693 10691 10688 10684 10681 10677 10673 10670 10667 10665 10662 10660 10657
10700 10703 10706 10708 10711 10714 10717 10718 10720 10721 10724 10727 10729 10730 10731 10732 10734 10736 10737 10739 10741 10742 10740 10739 10739 10740 10739 10738 10738 10738 10738 10738 10736 10735 10733 10732 10731 10730 10729 10729 10728 10728 10727 10727 10726 10726 10725 10724 10723 10722 10721 10719 10718 10716 10715 10713 10712 10711 10709 10708 10707 10706 10704 10703 10701 10699 10696 10693 10690 10687 10684 10681 10680 10678 10675 10672 10668 10663 10659 10656 10653 10651 10648 10646 10642
10690 10693 10696 10699 10702 10704 10706 10708 10709 10712 10717 10722 10724 10723 10722 10724 10726 10727 10726 10729 10732 10734 10732 10729 10728 10728 10727 10726 10726 10727 10727 10726 10725 10724 10723 10722 10721 10720 10719 10718 10718 10717 10716 10716 10715 10715 10714 10713 10712 10711 10710 10708 10707 10705 10703 10702 10700 10699 10698 10697 10695 10694 10692 10691 10689 10687 10684 10681 10677 10673 10670 10668 10667 10664 10661 10658 10653 10648 10643 10641 10638 10636 10634 10631 10628